Alexandria, Egypt

6:25 PM EET on February 19, 2018 (GMT +0200)
Alexandria

Weather History for 62318 - September, 2013

Change the Weather History Date:

Monday, September 2, 2013

  Actual Average Record
Temperature  
Mean Temperature 82 °F -  
Max Temperature 87 °F 83 °F - ()
Min Temperature 77 °F 70 °F - ()
Cooling Degree Days 18    
Growing Degree Days 32 (Base 50)    
Moisture  
Dew Point 71 °F    
Average Humidity 70    
Maximum Humidity 83    
Minimum Humidity 52    
Precipitation  
Precipitation 0.00 in 0.00 in - ()
Sea Level Pressure  
Sea Level Pressure 29.88 in    
Wind  
Wind Speed 10 mph ()    
Max Wind Speed 16 mph    
Max Gust Speed -    
Visibility 6.2 miles    
Events      
T = Trace of Precipitation, MM = Missing Value Source: Averaged Metar Reports

Daily Weather History Graph

Daily Weather History Graph

Search for Another Location

Airport or City:

Trip Planner

Search our weather history database for the weather conditions in past years. The results will help you decide how hot, cold, wet, or windy it might be!

Date:

Astronomy

Sep. 02, 2013 Rise Set
Actual Time 5:36 AM EET 6:22 PM EET
Civil Twilight 5:12 AM EET 6:47 PM EET
Nautical Twilight 4:43 AM EET 7:16 PM EET
Astronomical Twilight 4:13 AM EET 7:45 PM EET
Moon 2:42 AM EET (9/2) 4:18 PM EET (9/2)
Length of Visible Light 13h 34m
Length of Day
12h 45m
Waning Crescent, 9% of the Moon is Illuminated
Sep 2
Waning Crescent
Sep 5
New
Sep 12
First Quarter
Sep 19
Full
Sep 27
Last Quarter

Hourly Weather History & Observations

Time (EET) Temp. Heat Index Dew Point Humidity Pressure Visibility Wind Dir Wind Speed Gust Speed Precip Events Conditions
12:00 AM 80.6 °F 84.6 °F 71.6 °F 74% 29.86 in 6.2 mi North 11.5 mph - N/A   Partly Cloudy
1:00 AM 78.8 °F - 71.6 °F 78% 29.86 in 6.2 mi NNW 11.5 mph - N/A   Scattered Clouds
2:00 AM 80 °F - 70 °F 65% 29.85 in 6 mi NNW 9.2 mph - -   Partly Cloudy
2:00 AM 78.8 °F - 69.8 °F 74% 29.83 in 6.2 mi NNW 9.2 mph - N/A   Scattered Clouds
3:00 AM 78.8 °F - 69.8 °F 74% 29.83 in 6.2 mi NW 11.5 mph - N/A   Scattered Clouds
4:00 AM 77.0 °F - 68.0 °F 74% 29.83 in 6.2 mi North 13.8 mph - N/A   Scattered Clouds
5:00 AM 78.8 °F - 71.6 °F 78% 29.83 in 6.2 mi NW 9.2 mph - N/A   Scattered Clouds
6:00 AM 78.8 °F - 69.8 °F 74% 29.83 in 6.2 mi North 13.8 mph - N/A   Scattered Clouds
7:00 AM 80.6 °F 83.9 °F 69.8 °F 70% 29.86 in 6.2 mi North 11.5 mph - N/A   Mostly Cloudy
8:00 AM 81 °F - 70 °F 61% 29.88 in 6 mi NNW 9.2 mph - -   Mostly Cloudy
8:00 AM 80.6 °F 83.9 °F 69.8 °F 70% 29.86 in 6.2 mi NNW 9.2 mph - N/A   Mostly Cloudy
9:00 AM 80.6 °F 83.9 °F 69.8 °F 70% 29.89 in 6.2 mi NW 10.4 mph - N/A   Mostly Cloudy
10:00 AM 84.2 °F 88.4 °F 69.8 °F 62% 29.89 in 6.2 mi NNW 10.4 mph - N/A   Scattered Clouds
11:00 AM 84.2 °F 89.6 °F 71.6 °F 66% 29.89 in 6.2 mi NNW 9.2 mph - N/A   Scattered Clouds
12:00 PM 84.2 °F 88.4 °F 69.8 °F 62% 29.89 in 6.2 mi NW 10.4 mph - N/A   Scattered Clouds
1:00 PM 86.0 °F 91.8 °F 71.6 °F 62% 29.89 in 6.2 mi NW 11.5 mph - N/A   Scattered Clouds
2:00 PM 86 °F - 71 °F 52% 29.91 in 6 mi NNW 13.8 mph - -   Mostly Cloudy
2:00 PM 86.0 °F 91.8 °F 71.6 °F 62% 29.89 in 6.2 mi NNW 13.8 mph - N/A   Scattered Clouds
3:00 PM 86.0 °F 91.8 °F 71.6 °F 62% 29.89 in 6.2 mi NW 16.1 mph - N/A   Scattered Clouds
4:00 PM 84.2 °F 89.6 °F 71.6 °F 66% 29.89 in 6.2 mi NNW 15.0 mph - N/A   Scattered Clouds
5:00 PM 82.4 °F 87.2 °F 71.6 °F 70% 29.89 in 6.2 mi NNW 10.4 mph - N/A   Scattered Clouds
6:00 PM 80.6 °F 84.6 °F 71.6 °F 74% 29.92 in 6.2 mi NNW 16.1 mph - N/A   Scattered Clouds
7:00 PM 80.6 °F 84.6 °F 71.6 °F 74% 29.89 in 6.2 mi NNW 13.8 mph - N/A   Scattered Clouds
8:00 PM 79 °F - 71 °F 70% 29.91 in 6 mi NNW 12.7 mph - -   Mostly Cloudy
8:00 PM 78.8 °F - 71.6 °F 78% 29.89 in 6.2 mi NNW 12.7 mph - N/A   Scattered Clouds
9:00 PM 78.8 °F - 71.6 °F 78% 29.92 in 6.2 mi NNW 10.4 mph - N/A   Scattered Clouds
10:00 PM 78.8 °F - 71.6 °F 78% 29.95 in 6.2 mi North 9.2 mph - N/A   Scattered Clouds
11:00 PM 77.0 °F - 71.6 °F 83% 29.95 in 6.2 mi NNW 10.4 mph - N/A   Scattered Clouds